Year,Month,Day,Hour,Minute,Value (Times are PST for temperature in C)
2015,03,24,00,00,3.70
2015,03,24,00,01,3.70
2015,03,24,00,02,3.70
2015,03,24,00,03,3.70
2015,03,24,00,04,3.70
2015,03,24,00,05,3.60
2015,03,24,00,06,3.60
2015,03,24,00,07,3.60
2015,03,24,00,08,3.60
2015,03,24,00,09,3.60
2015,03,24,00,10,3.50
2015,03,24,00,11,3.50
2015,03,24,00,12,3.50
2015,03,24,00,13,3.50
2015,03,24,00,14,3.50
2015,03,24,00,15,3.50
2015,03,24,00,16,3.50
2015,03,24,00,17,3.50
2015,03,24,00,18,3.50
2015,03,24,00,19,3.40
2015,03,24,00,20,3.40
2015,03,24,00,21,3.40
2015,03,24,00,22,3.40
2015,03,24,00,23,3.40
2015,03,24,00,24,3.40
2015,03,24,00,25,3.40
2015,03,24,00,26,3.30
2015,03,24,00,27,3.30
2015,03,24,00,28,3.30
2015,03,24,00,29,3.30
2015,03,24,00,30,3.30
2015,03,24,00,31,3.20
2015,03,24,00,32,3.20
2015,03,24,00,33,3.20
2015,03,24,00,34,3.20
2015,03,24,00,35,3.20
2015,03,24,00,36,3.10
2015,03,24,00,37,3.10
2015,03,24,00,38,3.10
2015,03,24,00,39,3.10
2015,03,24,00,40,3.10
2015,03,24,00,41,3.00
2015,03,24,00,42,3.00
2015,03,24,00,43,3.00
2015,03,24,00,44,3.00
2015,03,24,00,45,2.90
2015,03,24,00,46,2.90
2015,03,24,00,47,2.90
2015,03,24,00,48,2.90
2015,03,24,00,49,2.90
2015,03,24,00,50,2.90
2015,03,24,00,51,2.90
2015,03,24,00,52,2.90
2015,03,24,00,53,2.90
2015,03,24,00,54,2.90
2015,03,24,00,55,2.90
2015,03,24,00,56,2.90
2015,03,24,00,57,2.90
2015,03,24,00,58,2.90
2015,03,24,00,59,2.90
2015,03,24,01,00,2.90
2015,03,24,01,01,2.90
2015,03,24,01,02,2.90
2015,03,24,01,03,2.80
2015,03,24,01,04,2.80
2015,03,24,01,05,2.80
2015,03,24,01,06,2.80
2015,03,24,01,07,2.80
2015,03,24,01,08,2.80
2015,03,24,01,09,2.80
2015,03,24,01,10,2.80
2015,03,24,01,11,2.80
2015,03,24,01,12,2.80
2015,03,24,01,13,2.80
2015,03,24,01,14,2.80
2015,03,24,01,15,2.80
2015,03,24,01,16,2.80
2015,03,24,01,17,2.80
2015,03,24,01,18,2.80
2015,03,24,01,19,2.80
2015,03,24,01,20,2.80
2015,03,24,01,21,2.80
2015,03,24,01,22,2.80
2015,03,24,01,23,2.80
2015,03,24,01,24,2.80
2015,03,24,01,25,2.80
2015,03,24,01,26,2.80
2015,03,24,01,27,2.70
2015,03,24,01,28,2.70
2015,03,24,01,29,2.70
2015,03,24,01,30,2.70
2015,03,24,01,31,2.70
2015,03,24,01,32,2.70
2015,03,24,01,33,2.70
2015,03,24,01,34,2.70
2015,03,24,01,35,2.70
2015,03,24,01,36,2.70
2015,03,24,01,37,2.70
2015,03,24,01,38,2.70
2015,03,24,01,39,2.70
2015,03,24,01,40,2.70
2015,03,24,01,41,2.70
2015,03,24,01,42,2.70
2015,03,24,01,43,2.70
2015,03,24,01,44,2.70
2015,03,24,01,45,2.70
2015,03,24,01,46,2.70
2015,03,24,01,47,2.80
2015,03,24,01,48,2.80
2015,03,24,01,49,2.80
2015,03,24,01,50,2.80
2015,03,24,01,51,2.80
2015,03,24,01,52,2.80
2015,03,24,01,53,2.80
2015,03,24,01,54,2.80
2015,03,24,01,55,2.80
2015,03,24,01,56,2.80
2015,03,24,01,57,2.80
2015,03,24,01,58,2.80
2015,03,24,01,59,2.80
2015,03,24,02,00,2.80
2015,03,24,02,01,2.80
2015,03,24,02,02,2.80
2015,03,24,02,03,2.80
2015,03,24,02,04,2.80
2015,03,24,02,05,2.80
2015,03,24,02,06,2.80
2015,03,24,02,07,2.70
2015,03,24,02,08,2.70
2015,03,24,02,09,2.70
2015,03,24,02,10,2.70
2015,03,24,02,11,2.70
2015,03,24,02,12,2.70
2015,03,24,02,13,2.70
2015,03,24,02,14,2.70
2015,03,24,02,15,2.70
2015,03,24,02,16,2.70
2015,03,24,02,17,2.70
2015,03,24,02,18,2.70
2015,03,24,02,19,2.60
2015,03,24,02,20,2.60
2015,03,24,02,21,2.60
2015,03,24,02,22,2.60
2015,03,24,02,23,2.60
2015,03,24,02,24,2.60
2015,03,24,02,25,2.50
2015,03,24,02,26,2.50
2015,03,24,02,27,2.50
2015,03,24,02,28,2.50
2015,03,24,02,29,2.40
2015,03,24,02,30,2.40
2015,03,24,02,31,2.40
2015,03,24,02,32,2.40
2015,03,24,02,33,2.40
2015,03,24,02,34,2.40
2015,03,24,02,35,2.50
2015,03,24,02,36,2.50
2015,03,24,02,37,2.50
2015,03,24,02,38,2.60
2015,03,24,02,39,2.60
2015,03,24,02,40,2.60
2015,03,24,02,41,2.60
2015,03,24,02,42,2.60
2015,03,24,02,43,2.70
2015,03,24,02,44,2.70
2015,03,24,02,45,2.70
2015,03,24,02,46,2.70
2015,03,24,02,47,2.70
2015,03,24,02,48,2.70
2015,03,24,02,49,2.70
2015,03,24,02,50,2.70
2015,03,24,02,51,2.70
2015,03,24,02,52,2.70
2015,03,24,02,53,2.60
2015,03,24,02,54,2.60
2015,03,24,02,55,2.50
2015,03,24,02,56,2.50
2015,03,24,02,57,2.40
2015,03,24,02,58,2.40
2015,03,24,02,59,2.40
2015,03,24,03,00,2.40
2015,03,24,03,01,2.40
2015,03,24,03,02,2.40
2015,03,24,03,03,2.50
2015,03,24,03,04,2.50
2015,03,24,03,05,2.60
2015,03,24,03,06,2.60
2015,03,24,03,07,2.50
2015,03,24,03,08,2.50
2015,03,24,03,09,2.50
2015,03,24,03,10,2.40
2015,03,24,03,11,2.40
2015,03,24,03,12,2.40
2015,03,24,03,13,2.40
2015,03,24,03,14,2.40
2015,03,24,03,15,2.40
2015,03,24,03,16,2.40
2015,03,24,03,17,2.40
2015,03,24,03,18,2.40
2015,03,24,03,19,2.40
2015,03,24,03,20,2.40
2015,03,24,03,21,2.40
2015,03,24,03,22,2.40
2015,03,24,03,23,2.40
2015,03,24,03,24,2.40
2015,03,24,03,25,2.40
2015,03,24,03,26,2.40
2015,03,24,03,27,2.50
2015,03,24,03,28,2.50
2015,03,24,03,29,2.50
2015,03,24,03,30,2.50
2015,03,24,03,31,2.50
2015,03,24,03,32,2.50
2015,03,24,03,33,2.60
2015,03,24,03,34,2.60
2015,03,24,03,35,2.60
2015,03,24,03,36,2.50
2015,03,24,03,37,2.50
2015,03,24,03,38,2.50
2015,03,24,03,39,2.50
2015,03,24,03,40,2.50
2015,03,24,03,41,2.40
2015,03,24,03,42,2.40
2015,03,24,03,43,2.40
2015,03,24,03,44,2.40
2015,03,24,03,45,2.30
2015,03,24,03,46,2.30
2015,03,24,03,47,2.30
2015,03,24,03,48,2.30
2015,03,24,03,49,2.30
2015,03,24,03,50,2.30
2015,03,24,03,51,2.30
2015,03,24,03,52,2.30
2015,03,24,03,53,2.30
2015,03,24,03,54,2.30
2015,03,24,03,55,2.30
2015,03,24,03,56,2.30
2015,03,24,03,57,2.30
2015,03,24,03,58,2.30
2015,03,24,03,59,2.30
2015,03,24,04,00,2.30
2015,03,24,04,01,2.30
2015,03,24,04,02,2.30
2015,03,24,04,03,2.30
2015,03,24,04,04,2.30
2015,03,24,04,05,2.20
2015,03,24,04,06,2.20
2015,03,24,04,07,2.20
2015,03,24,04,08,2.20
2015,03,24,04,09,2.10
2015,03,24,04,10,2.10
2015,03,24,04,11,2.10
2015,03,24,04,12,2.10
2015,03,24,04,13,2.00
2015,03,24,04,14,2.00
2015,03,24,04,15,2.00
2015,03,24,04,16,2.00
2015,03,24,04,17,2.00
2015,03,24,04,18,1.90
2015,03,24,04,19,1.90
2015,03,24,04,20,1.90
2015,03,24,04,21,1.90
2015,03,24,04,22,1.90
2015,03,24,04,23,1.90
2015,03,24,04,24,1.90
2015,03,24,04,25,1.90
2015,03,24,04,26,1.90
2015,03,24,04,27,1.90
2015,03,24,04,28,1.90
2015,03,24,04,29,1.90
2015,03,24,04,30,1.90
2015,03,24,04,31,1.90
2015,03,24,04,32,1.80
2015,03,24,04,33,1.80
2015,03,24,04,34,1.80
2015,03,24,04,35,1.80
2015,03,24,04,36,1.80
2015,03,24,04,37,1.70
2015,03,24,04,38,1.70
2015,03,24,04,39,1.60
2015,03,24,04,40,1.60
2015,03,24,04,41,1.60
2015,03,24,04,42,1.60
2015,03,24,04,43,1.60
2015,03,24,04,44,1.70
2015,03,24,04,45,1.70
2015,03,24,04,46,1.70
2015,03,24,04,47,1.70
2015,03,24,04,48,1.60
2015,03,24,04,49,1.60
2015,03,24,04,50,1.60
2015,03,24,04,51,1.60
2015,03,24,04,52,1.60
2015,03,24,04,53,1.60
2015,03,24,04,54,1.70
2015,03,24,04,55,1.70
2015,03,24,04,56,1.70
2015,03,24,04,57,1.60
2015,03,24,04,58,1.60
2015,03,24,04,59,1.60
2015,03,24,05,00,1.50
2015,03,24,05,01,1.50
2015,03,24,05,02,1.50
2015,03,24,05,03,1.50
2015,03,24,05,04,1.50
2015,03,24,05,05,1.50
2015,03,24,05,06,1.50
2015,03,24,05,07,1.50
2015,03,24,05,08,1.40
2015,03,24,05,09,1.40
2015,03,24,05,10,1.40
2015,03,24,05,11,1.40
2015,03,24,05,12,1.40
2015,03,24,05,13,1.60
2015,03,24,05,14,1.70
2015,03,24,05,15,1.80
2015,03,24,05,16,1.80
2015,03,24,05,17,1.80
2015,03,24,05,18,1.80
2015,03,24,05,19,1.80
2015,03,24,05,20,1.80
2015,03,24,05,21,1.80
2015,03,24,05,22,1.80
2015,03,24,05,23,1.80
2015,03,24,05,24,1.80
2015,03,24,05,25,1.70
2015,03,24,05,26,1.70
2015,03,24,05,27,1.70
2015,03,24,05,28,1.70
2015,03,24,05,29,1.60
2015,03,24,05,30,1.60
2015,03,24,05,31,1.60
2015,03,24,05,32,1.60
2015,03,24,05,33,1.50
2015,03,24,05,34,1.50
2015,03,24,05,35,1.40
2015,03,24,05,36,1.40
2015,03,24,05,37,1.40
2015,03,24,05,38,1.30
2015,03,24,05,39,1.30
2015,03,24,05,40,1.30
2015,03,24,05,41,1.30
2015,03,24,05,42,1.30
2015,03,24,05,43,1.30
2015,03,24,05,44,1.30
2015,03,24,05,45,1.30
2015,03,24,05,46,1.30
2015,03,24,05,47,1.30
2015,03,24,05,48,1.30
2015,03,24,05,49,1.30
2015,03,24,05,50,1.40
2015,03,24,05,51,1.40
2015,03,24,05,52,1.40
2015,03,24,05,53,1.40
2015,03,24,05,54,1.40
2015,03,24,05,55,1.40
2015,03,24,05,56,1.40
2015,03,24,05,57,1.40
2015,03,24,05,58,1.40
2015,03,24,05,59,1.40
2015,03,24,06,00,1.40
2015,03,24,06,01,1.40
2015,03,24,06,02,1.40
2015,03,24,06,03,1.40
2015,03,24,06,04,1.30
2015,03,24,06,05,1.30
2015,03,24,06,06,1.30
2015,03,24,06,07,1.30
2015,03,24,06,08,1.30
2015,03,24,06,09,1.30
2015,03,24,06,10,1.40
2015,03,24,06,11,1.40
2015,03,24,06,12,1.50
2015,03,24,06,13,1.50
2015,03,24,06,14,1.50
2015,03,24,06,15,1.60
2015,03,24,06,16,1.60
2015,03,24,06,17,1.60
2015,03,24,06,18,1.60
2015,03,24,06,19,1.60
2015,03,24,06,20,1.60
2015,03,24,06,21,1.60
2015,03,24,06,22,1.70
2015,03,24,06,23,1.70
2015,03,24,06,24,1.70
2015,03,24,06,25,1.70
2015,03,24,06,26,1.70
2015,03,24,06,27,1.70
2015,03,24,06,28,1.70
2015,03,24,06,29,1.70
2015,03,24,06,30,1.70
2015,03,24,06,31,1.70
2015,03,24,06,32,1.70
2015,03,24,06,33,1.70
2015,03,24,06,34,1.70
2015,03,24,06,35,1.70
2015,03,24,06,36,1.70
2015,03,24,06,37,1.70
2015,03,24,06,38,1.70
2015,03,24,06,39,1.70
2015,03,24,06,40,1.70
2015,03,24,06,41,1.70
2015,03,24,06,42,1.70
2015,03,24,06,43,1.70
2015,03,24,06,44,1.80
2015,03,24,06,45,1.80
2015,03,24,06,46,1.80
2015,03,24,06,47,1.80
2015,03,24,06,48,1.80
2015,03,24,06,49,1.80
2015,03,24,06,50,1.80
2015,03,24,06,51,1.70
2015,03,24,06,52,1.70
2015,03,24,06,53,1.70
2015,03,24,06,54,1.70
2015,03,24,06,55,1.70
2015,03,24,06,56,1.70
2015,03,24,06,57,1.70
2015,03,24,06,58,1.70
2015,03,24,06,59,1.60
2015,03,24,07,00,1.60
2015,03,24,07,01,1.60
2015,03,24,07,02,1.60
2015,03,24,07,03,1.60
2015,03,24,07,04,1.60
2015,03,24,07,05,1.60
2015,03,24,07,06,1.70
2015,03,24,07,07,1.70
2015,03,24,07,08,1.70
2015,03,24,07,09,1.70
2015,03,24,07,10,1.70
2015,03,24,07,11,1.70
2015,03,24,07,12,1.70
2015,03,24,07,13,1.70
2015,03,24,07,14,1.70
2015,03,24,07,15,1.70
2015,03,24,07,16,1.70
2015,03,24,07,17,1.70
2015,03,24,07,18,1.70
2015,03,24,07,19,1.60
2015,03,24,07,20,1.60
2015,03,24,07,21,1.60
2015,03,24,07,22,1.60
2015,03,24,07,23,1.60
2015,03,24,07,24,1.60
2015,03,24,07,25,1.60
2015,03,24,07,26,1.60
2015,03,24,07,27,1.60
2015,03,24,07,28,1.60
2015,03,24,07,29,1.60
2015,03,24,07,30,1.60
2015,03,24,07,31,1.70
2015,03,24,07,32,1.70
2015,03,24,07,33,1.70
2015,03,24,07,34,1.70
2015,03,24,07,35,1.70
2015,03,24,07,36,1.70
2015,03,24,07,37,1.70
2015,03,24,07,38,1.70
2015,03,24,07,39,1.70
2015,03,24,07,40,1.80
2015,03,24,07,41,1.70
2015,03,24,07,42,1.70
2015,03,24,07,43,1.70
2015,03,24,07,44,1.70
2015,03,24,07,45,1.80
2015,03,24,07,46,1.80
2015,03,24,07,47,1.80
2015,03,24,07,48,1.80
2015,03,24,07,49,1.80
2015,03,24,07,50,1.80
2015,03,24,07,51,1.80
2015,03,24,07,52,1.70
2015,03,24,07,53,1.70
2015,03,24,07,54,1.70
2015,03,24,07,55,1.70
2015,03,24,07,56,1.70
2015,03,24,07,57,1.70
2015,03,24,07,58,1.70
2015,03,24,07,59,1.70
2015,03,24,08,00,1.80
2015,03,24,08,01,1.80
2015,03,24,08,02,1.90
2015,03,24,08,03,1.90
2015,03,24,08,04,1.90
2015,03,24,08,05,2.00
2015,03,24,08,06,2.10
2015,03,24,08,07,2.10
2015,03,24,08,08,2.20
2015,03,24,08,09,2.30
2015,03,24,08,10,2.50
2015,03,24,08,11,2.50
2015,03,24,08,12,2.60
2015,03,24,08,13,2.70
2015,03,24,08,14,2.80
2015,03,24,08,15,2.80
2015,03,24,08,16,2.90
2015,03,24,08,17,3.10
2015,03,24,08,18,3.20
2015,03,24,08,19,3.30
2015,03,24,08,20,3.50
2015,03,24,08,21,3.60
2015,03,24,08,22,3.60
2015,03,24,08,23,3.70
2015,03,24,08,24,3.70
2015,03,24,08,25,3.70
2015,03,24,08,26,3.70
2015,03,24,08,27,3.70
2015,03,24,08,28,3.60
2015,03,24,08,29,3.60
2015,03,24,08,30,3.60
2015,03,24,08,31,3.50
2015,03,24,08,32,3.50
2015,03,24,08,33,3.50
2015,03,24,08,34,3.50
2015,03,24,08,35,3.50
2015,03,24,08,36,3.60
2015,03,24,08,37,3.60
2015,03,24,08,38,3.70
2015,03,24,08,39,3.80
2015,03,24,08,40,3.90
2015,03,24,08,41,4.00
2015,03,24,08,42,4.10
2015,03,24,08,43,4.20
2015,03,24,08,44,4.20
2015,03,24,08,45,4.30
2015,03,24,08,46,4.40
2015,03,24,08,47,4.50
2015,03,24,08,48,4.60
2015,03,24,08,49,4.70
2015,03,24,08,50,4.80
2015,03,24,08,51,4.90
2015,03,24,08,52,4.90
2015,03,24,08,53,5.00
2015,03,24,08,54,5.10
2015,03,24,08,55,5.10
2015,03,24,08,56,5.10
2015,03,24,08,57,5.10
2015,03,24,08,58,5.10
2015,03,24,08,59,5.10
2015,03,24,09,00,5.10
2015,03,24,09,01,5.10
2015,03,24,09,02,5.00
2015,03,24,09,03,5.00
2015,03,24,09,04,5.00
2015,03,24,09,05,5.10
2015,03,24,09,06,5.10
2015,03,24,09,07,5.10
2015,03,24,09,08,5.20
2015,03,24,09,09,5.30
2015,03,24,09,10,5.40
2015,03,24,09,11,5.50
2015,03,24,09,12,5.60
2015,03,24,09,13,5.60
2015,03,24,09,14,5.60
2015,03,24,09,15,5.70
2015,03,24,09,16,5.70
2015,03,24,09,17,5.80
2015,03,24,09,18,5.80
2015,03,24,09,19,5.90
2015,03,24,09,20,5.90
2015,03,24,09,21,5.90
2015,03,24,09,22,6.00
2015,03,24,09,23,6.00
2015,03,24,09,24,6.10
2015,03,24,09,25,6.10
2015,03,24,09,26,6.20
2015,03,24,09,27,6.30
2015,03,24,09,28,6.40
2015,03,24,09,29,6.50
2015,03,24,09,30,6.60
2015,03,24,09,31,6.80
2015,03,24,09,32,6.90
2015,03,24,09,33,7.10
2015,03,24,09,34,7.20
2015,03,24,09,35,7.30
2015,03,24,09,36,7.50
2015,03,24,09,37,7.60
2015,03,24,09,38,7.70
2015,03,24,09,39,7.80
2015,03,24,09,40,7.90
2015,03,24,09,41,8.00
2015,03,24,09,42,8.10
2015,03,24,09,43,8.10
2015,03,24,09,44,8.20
2015,03,24,09,45,8.30
2015,03,24,09,46,8.40
2015,03,24,09,47,8.50
2015,03,24,09,48,8.50
2015,03,24,09,49,8.60
2015,03,24,09,50,8.70
2015,03,24,09,51,8.80
2015,03,24,09,52,8.90
2015,03,24,09,53,8.90
2015,03,24,09,54,8.90
2015,03,24,09,55,8.80
2015,03,24,09,56,8.80
2015,03,24,09,57,8.70
2015,03,24,09,58,8.70
2015,03,24,09,59,8.70
2015,03,24,10,00,8.60
2015,03,24,10,01,8.60
2015,03,24,10,02,8.60
2015,03,24,10,03,8.60
2015,03,24,10,04,8.70
2015,03,24,10,05,8.80
2015,03,24,10,06,8.80
2015,03,24,10,07,8.80
2015,03,24,10,08,8.80
2015,03,24,10,09,8.80
2015,03,24,10,10,8.90
2015,03,24,10,11,9.00
2015,03,24,10,12,9.10
2015,03,24,10,13,9.10
2015,03,24,10,14,9.10
2015,03,24,10,15,9.10
2015,03,24,10,16,9.20
2015,03,24,10,17,9.10
2015,03,24,10,18,9.10
2015,03,24,10,19,9.10
2015,03,24,10,20,9.20
2015,03,24,10,21,9.20
2015,03,24,10,22,9.10
2015,03,24,10,23,9.10
2015,03,24,10,24,9.00
2015,03,24,10,25,9.00
2015,03,24,10,26,9.00
2015,03,24,10,27,9.10
2015,03,24,10,28,9.20
2015,03,24,10,29,9.30
2015,03,24,10,30,9.40
2015,03,24,10,31,9.50
2015,03,24,10,32,9.60
2015,03,24,10,33,9.50
2015,03,24,10,34,9.40
2015,03,24,10,35,9.40
2015,03,24,10,36,9.40
2015,03,24,10,37,9.40
2015,03,24,10,38,9.50
2015,03,24,10,39,9.60
2015,03,24,10,40,9.60
2015,03,24,10,41,9.60
2015,03,24,10,42,9.60
2015,03,24,10,43,9.50
2015,03,24,10,44,9.40
2015,03,24,10,45,9.30
2015,03,24,10,46,9.20
2015,03,24,10,47,9.10
2015,03,24,10,48,9.10
2015,03,24,10,49,9.10
2015,03,24,10,50,9.10
2015,03,24,10,51,9.20
2015,03,24,10,52,9.20
2015,03,24,10,53,9.20
2015,03,24,10,54,9.20
2015,03,24,10,55,9.20
2015,03,24,10,56,9.20
2015,03,24,10,57,9.30
2015,03,24,10,58,9.50
2015,03,24,10,59,9.70
2015,03,24,11,00,9.90
2015,03,24,11,01,10.00
2015,03,24,11,02,10.10
2015,03,24,11,03,10.20
2015,03,24,11,04,10.10
2015,03,24,11,05,10.00
2015,03,24,11,06,9.80
2015,03,24,11,07,9.60
2015,03,24,11,08,9.50
2015,03,24,11,09,9.40
2015,03,24,11,10,9.30
2015,03,24,11,11,9.40
2015,03,24,11,12,9.50
2015,03,24,11,13,9.60
2015,03,24,11,14,9.70
2015,03,24,11,15,9.70
2015,03,24,11,16,9.70
2015,03,24,11,17,9.60
2015,03,24,11,18,9.50
2015,03,24,11,19,9.40
2015,03,24,11,20,9.30
2015,03,24,11,21,9.20
2015,03,24,11,22,9.10
2015,03,24,11,23,9.00
2015,03,24,11,24,9.00
2015,03,24,11,25,9.00
2015,03,24,11,26,9.00
2015,03,24,11,27,9.10
2015,03,24,11,28,9.20
2015,03,24,11,29,9.30
2015,03,24,11,30,9.40
2015,03,24,11,31,9.40
2015,03,24,11,32,9.40
2015,03,24,11,33,9.40
2015,03,24,11,34,9.30
2015,03,24,11,35,9.30
2015,03,24,11,36,9.30
2015,03,24,11,37,9.30
2015,03,24,11,38,9.30
2015,03,24,11,39,9.40
2015,03,24,11,40,9.40
2015,03,24,11,41,9.50
2015,03,24,11,42,9.60
2015,03,24,11,43,9.60
2015,03,24,11,44,9.60
2015,03,24,11,45,9.50
2015,03,24,11,46,9.50
2015,03,24,11,47,9.40
2015,03,24,11,48,9.40
2015,03,24,11,49,9.40
2015,03,24,11,50,9.40
2015,03,24,11,51,9.40
2015,03,24,11,52,9.50
2015,03,24,11,53,9.50
2015,03,24,11,54,9.40
2015,03,24,11,55,9.40
2015,03,24,11,56,9.30
2015,03,24,11,57,9.30
2015,03,24,11,58,9.20
2015,03,24,11,59,9.20
2015,03,24,12,00,9.10
2015,03,24,12,01,9.00
2015,03,24,12,02,9.00
2015,03,24,12,03,9.00
2015,03,24,12,04,9.00
2015,03,24,12,05,9.00
2015,03,24,12,06,9.00
2015,03,24,12,07,9.10
2015,03,24,12,08,9.20
2015,03,24,12,09,9.20
2015,03,24,12,10,9.20
2015,03,24,12,11,9.30
2015,03,24,12,12,9.20
2015,03,24,12,13,9.20
2015,03,24,12,14,9.10
2015,03,24,12,15,9.10
2015,03,24,12,16,9.10
2015,03,24,12,17,9.10
2015,03,24,12,18,9.10
2015,03,24,12,19,9.10
2015,03,24,12,20,9.10
2015,03,24,12,21,9.10
2015,03,24,12,22,9.10
2015,03,24,12,23,9.20
2015,03,24,12,24,9.20
2015,03,24,12,25,9.30
2015,03,24,12,26,9.40
2015,03,24,12,27,9.40
2015,03,24,12,28,9.50
2015,03,24,12,29,9.60
2015,03,24,12,30,9.60
2015,03,24,12,31,9.60
2015,03,24,12,32,9.50
2015,03,24,12,33,9.50
2015,03,24,12,34,9.50
2015,03,24,12,35,9.40
2015,03,24,12,36,9.30
2015,03,24,12,37,9.30
2015,03,24,12,38,9.30
2015,03,24,12,39,9.30
2015,03,24,12,40,9.40
2015,03,24,12,41,9.40
2015,03,24,12,42,9.40
2015,03,24,12,43,9.40
2015,03,24,12,44,9.40
2015,03,24,12,45,9.50
2015,03,24,12,46,9.50
2015,03,24,12,47,9.50
2015,03,24,12,48,9.40
2015,03,24,12,49,9.30
2015,03,24,12,50,9.30
2015,03,24,12,51,9.30
2015,03,24,12,52,9.30
2015,03,24,12,53,9.30
2015,03,24,12,54,9.30
2015,03,24,12,55,9.30
2015,03,24,12,56,9.30
2015,03,24,12,57,9.30
2015,03,24,12,58,9.30
2015,03,24,12,59,9.30
2015,03,24,13,00,9.30
2015,03,24,13,01,9.40
2015,03,24,13,02,9.40
2015,03,24,13,03,9.50
2015,03,24,13,04,9.60
2015,03,24,13,05,9.60
2015,03,24,13,06,9.70
2015,03,24,13,07,9.80
2015,03,24,13,08,9.90
2015,03,24,13,09,9.90
2015,03,24,13,10,10.00
2015,03,24,13,11,10.10
2015,03,24,13,12,10.20
2015,03,24,13,13,10.20
2015,03,24,13,14,10.20
2015,03,24,13,15,10.20
2015,03,24,13,16,10.20
2015,03,24,13,17,10.30
2015,03,24,13,18,10.20
2015,03,24,13,19,10.30
2015,03,24,13,20,10.30
2015,03,24,13,21,10.30
2015,03,24,13,22,10.30
2015,03,24,13,23,10.30
2015,03,24,13,24,10.30
2015,03,24,13,25,10.30
2015,03,24,13,26,10.30
2015,03,24,13,27,10.40
2015,03,24,13,28,10.40
2015,03,24,13,29,10.40
2015,03,24,13,30,10.40
2015,03,24,13,31,10.40
2015,03,24,13,32,10.40
2015,03,24,13,33,10.40
2015,03,24,13,34,10.40
2015,03,24,13,35,10.50
2015,03,24,13,36,10.50
2015,03,24,13,37,10.50
2015,03,24,13,38,10.40
2015,03,24,13,39,10.40
2015,03,24,13,40,10.50
2015,03,24,13,41,10.60
2015,03,24,13,42,10.60
2015,03,24,13,43,10.50
2015,03,24,13,44,10.50
2015,03,24,13,45,10.50
2015,03,24,13,46,10.50
2015,03,24,13,47,10.60
2015,03,24,13,48,10.60
2015,03,24,13,49,10.60
2015,03,24,13,50,10.70
2015,03,24,13,51,10.70
2015,03,24,13,52,10.60
2015,03,24,13,53,10.60
2015,03,24,13,54,10.60
2015,03,24,13,55,10.60
2015,03,24,13,56,10.60
2015,03,24,13,57,10.60
2015,03,24,13,58,10.60
2015,03,24,13,59,10.60
2015,03,24,14,00,10.60
2015,03,24,14,01,10.60
2015,03,24,14,02,10.60
2015,03,24,14,03,10.50
2015,03,24,14,04,10.50
2015,03,24,14,05,10.50
2015,03,24,14,06,10.40
2015,03,24,14,07,10.40
2015,03,24,14,08,10.40
2015,03,24,14,09,10.30
2015,03,24,14,10,10.30
2015,03,24,14,11,10.20
2015,03,24,14,12,10.20
2015,03,24,14,13,10.20
2015,03,24,14,14,10.20
2015,03,24,14,15,10.20
2015,03,24,14,16,10.20
2015,03,24,14,17,10.20
2015,03,24,14,18,10.20
2015,03,24,14,19,10.20
2015,03,24,14,20,10.30
2015,03,24,14,21,10.40
2015,03,24,14,22,10.50
2015,03,24,14,23,10.70
2015,03,24,14,24,10.80
2015,03,24,14,25,10.90
2015,03,24,14,26,11.00
2015,03,24,14,27,11.00
2015,03,24,14,28,11.10
2015,03,24,14,29,11.20
2015,03,24,14,30,11.30
2015,03,24,14,31,11.30
2015,03,24,14,32,11.30
2015,03,24,14,33,11.30
2015,03,24,14,34,11.30
2015,03,24,14,35,11.30
2015,03,24,14,36,11.20
2015,03,24,14,37,11.10
2015,03,24,14,38,11.00
2015,03,24,14,39,10.90
2015,03,24,14,40,10.90
2015,03,24,14,41,10.90
2015,03,24,14,42,10.80
2015,03,24,14,43,10.80
2015,03,24,14,44,10.80
2015,03,24,14,45,10.80
2015,03,24,14,46,10.80
2015,03,24,14,47,10.80
2015,03,24,14,48,10.70
2015,03,24,14,49,10.70
2015,03,24,14,50,10.60
2015,03,24,14,51,10.50
2015,03,24,14,52,10.40
2015,03,24,14,53,10.30
2015,03,24,14,54,10.30
2015,03,24,14,55,10.20
2015,03,24,14,56,10.20
2015,03,24,14,57,10.10
2015,03,24,14,58,10.10
2015,03,24,14,59,10.10
2015,03,24,15,00,10.10
2015,03,24,15,01,10.10
2015,03,24,15,02,10.00
2015,03,24,15,03,10.00
2015,03,24,15,04,10.00
2015,03,24,15,05,9.90
2015,03,24,15,06,9.90
2015,03,24,15,07,9.90
2015,03,24,15,08,9.90
2015,03,24,15,09,9.90
2015,03,24,15,10,10.00
2015,03,24,15,11,10.10
2015,03,24,15,12,10.20
2015,03,24,15,13,10.20
2015,03,24,15,14,10.30
2015,03,24,15,15,10.30
2015,03,24,15,16,10.40
2015,03,24,15,17,10.40
2015,03,24,15,18,10.40
2015,03,24,15,19,10.40
2015,03,24,15,20,10.40
2015,03,24,15,21,10.40
2015,03,24,15,22,10.40
2015,03,24,15,23,10.40
2015,03,24,15,24,10.30
2015,03,24,15,25,10.30
2015,03,24,15,26,10.30
2015,03,24,15,27,10.30
2015,03,24,15,28,10.30
2015,03,24,15,29,10.30
2015,03,24,15,30,10.30
2015,03,24,15,31,10.30
2015,03,24,15,32,10.30
2015,03,24,15,33,10.20
2015,03,24,15,34,10.20
2015,03,24,15,35,10.10
2015,03,24,15,36,10.10
2015,03,24,15,37,10.00
2015,03,24,15,38,10.00
2015,03,24,15,39,10.00
2015,03,24,15,40,9.90
2015,03,24,15,41,9.90
2015,03,24,15,42,9.90
2015,03,24,15,43,9.90
2015,03,24,15,44,9.90
2015,03,24,15,45,9.80
2015,03,24,15,46,9.80
2015,03,24,15,47,9.90
2015,03,24,15,48,9.90
2015,03,24,15,49,9.90
2015,03,24,15,50,9.90
2015,03,24,15,51,10.00
2015,03,24,15,52,10.10
2015,03,24,15,53,10.10
2015,03,24,15,54,10.20
2015,03,24,15,55,10.20
2015,03,24,15,56,10.30
2015,03,24,15,57,10.40
2015,03,24,15,58,10.40
2015,03,24,15,59,10.50
2015,03,24,16,00,10.50
2015,03,24,16,01,10.50
2015,03,24,16,02,10.60
2015,03,24,16,03,10.60
2015,03,24,16,04,10.60
2015,03,24,16,05,10.70
2015,03,24,16,06,10.70
2015,03,24,16,07,10.80
2015,03,24,16,08,10.90
2015,03,24,16,09,11.00
2015,03,24,16,10,11.10
2015,03,24,16,11,11.20
2015,03,24,16,12,11.20
2015,03,24,16,13,11.30
2015,03,24,16,14,11.40
2015,03,24,16,15,11.40
2015,03,24,16,16,11.40
2015,03,24,16,17,11.30
2015,03,24,16,18,11.30
2015,03,24,16,19,11.20
2015,03,24,16,20,11.10
2015,03,24,16,21,11.10
2015,03,24,16,22,11.00
2015,03,24,16,23,11.00
2015,03,24,16,24,10.90
2015,03,24,16,25,10.90
2015,03,24,16,26,10.90
2015,03,24,16,27,10.80
2015,03,24,16,28,10.80
2015,03,24,16,29,10.80
2015,03,24,16,30,10.80
2015,03,24,16,31,10.80
2015,03,24,16,32,10.80
2015,03,24,16,33,10.80
2015,03,24,16,34,10.80
2015,03,24,16,35,10.80
2015,03,24,16,36,10.80
2015,03,24,16,37,10.80
2015,03,24,16,38,10.80
2015,03,24,16,39,10.90
2015,03,24,16,40,10.90
2015,03,24,16,41,10.90
2015,03,24,16,42,10.80
2015,03,24,16,43,10.80
2015,03,24,16,44,10.80
2015,03,24,16,45,10.70
2015,03,24,16,46,10.70
2015,03,24,16,47,10.60
2015,03,24,16,48,10.60
2015,03,24,16,49,10.50
2015,03,24,16,50,10.50
2015,03,24,16,51,10.50
2015,03,24,16,52,10.40
2015,03,24,16,53,10.40
2015,03,24,16,54,10.40
2015,03,24,16,55,10.40
2015,03,24,16,56,10.40
2015,03,24,16,57,10.40
2015,03,24,16,58,10.30
2015,03,24,16,59,10.30
2015,03,24,17,00,10.30
2015,03,24,17,01,10.30
2015,03,24,17,02,10.30
2015,03,24,17,03,10.30
2015,03,24,17,04,10.40
2015,03,24,17,05,10.40
2015,03,24,17,06,10.40
2015,03,24,17,07,10.40
2015,03,24,17,08,10.40
2015,03,24,17,09,10.40
2015,03,24,17,10,10.40
2015,03,24,17,11,10.30
2015,03,24,17,12,10.40
2015,03,24,17,13,10.40
2015,03,24,17,14,10.40
2015,03,24,17,15,10.50
2015,03,24,17,16,10.60
2015,03,24,17,17,10.60
2015,03,24,17,18,10.60
2015,03,24,17,19,10.70
2015,03,24,17,20,10.70
2015,03,24,17,21,10.70
2015,03,24,17,22,10.70
2015,03,24,17,23,10.70
2015,03,24,17,24,10.70
2015,03,24,17,25,10.80
2015,03,24,17,26,10.80
2015,03,24,17,27,10.80
2015,03,24,17,28,10.80
2015,03,24,17,29,10.80
2015,03,24,17,30,10.70
2015,03,24,17,31,10.70
2015,03,24,17,32,10.60
2015,03,24,17,33,10.60
2015,03,24,17,34,10.60
2015,03,24,17,35,10.50
2015,03,24,17,36,10.50
2015,03,24,17,37,10.50
2015,03,24,17,38,10.40
2015,03,24,17,39,10.40
2015,03,24,17,40,10.40
2015,03,24,17,41,10.30
2015,03,24,17,42,10.30
2015,03,24,17,43,10.30
2015,03,24,17,44,10.30
2015,03,24,17,45,10.30
2015,03,24,17,46,10.30
2015,03,24,17,47,10.20
2015,03,24,17,48,10.20
2015,03,24,17,49,10.20
2015,03,24,17,50,10.20
2015,03,24,17,51,10.20
2015,03,24,17,52,10.20
2015,03,24,17,53,10.20
2015,03,24,17,54,10.30